Flag for Germany Weather past 2 weeks in Lemgo, North Rhine-Westphalia, Germany

Now
33 °F

Snow flurries. Overcast.


Feels Like: 29 °F
Forecast: 29 / 38 °F
Wind: 5 mph from North

Location: Bad Lippspringe

Current Time: Dec 29, 2014 at 2:21:15 PM

Latest Report: Dec 29, 2014 at 2:00 PM


Visibility: 12 mi

Pressure: 30.45 "Hg

Humidity: 84%

Dew point: 29 °F

Location of LemgoLocation

Historic Weather in Lemgo — Graph

°F

Lemgo temperature yesterday

Maximum temperature yesterday: 29 °F (at 2:00 PM)
Minimum temperature yesterday: 21 °F (at 9:00 AM)
Average temperature yesterday: 26 °F

Past Weeks' High & Low Weather Summary

 TemperatureHumidityPressure
High53 °F (Dec 18, 8:00 PM)100% (Dec 26, 10:00 AM)30.49 "Hg (Dec 26, 10:00 AM)
Low21 °F (Dec 28, 9:00 AM)57% (Dec 27, 6:00 PM)29.59 "Hg (Dec 27, 2:00 PM)
Average41 °F87%30.03 "Hg
* Reported Dec 16 11:00 AM — Dec 29 1:00 PM, Lemgo, Weather by CustomWeather, © 2014

Note: Actual official high and low records may vary slightly from our data, if they occured in-between our weather recording intervals... More about our weather records

Advertising

Lemgo weather history for previous 24 hours

 ConditionsComfort  
Time TempWeatherWind HumidityBarometerVisibility
1:00 PM
Dec 29
33 °FLight snow. Overcast.6 mph87%30.44 "Hg7 mi
12:00 PM33 °FDrizzle. Overcast.3 mph85%30.42 "Hg14 mi
11:00 AM34 °FOvercast.6 mph84%30.39 "Hg12 mi
10:00 AM31 °FLow clouds.1 mph98%30.37 "Hg2 mi
9:00 AM30 °FLow clouds.1 mph97%30.36 "Hg1 mi
8:00 AM30 °FLow clouds.1 mph98%30.34 "Hg1 mi
7:00 AM29 °FSnow flurries. Low clouds.1 mph98%30.34 "Hg2 mi
6:00 AM29 °FLight snow. Low clouds.2 mph97%30.35 "Hg2 mi
5:00 AM29 °FLow clouds.3 mph97%30.36 "Hg3 mi
4:00 AM28 °FSnow. Low clouds.5 mph96%30.39 "Hg1 mi
3:00 AM30 °FLight snow. Overcast.6 mph83%30.39 "Hg3 mi
2:00 AM29 °FSnow flurries. Overcast.3 mph84%30.41 "Hg6 mi
1:00 AM29 °FOvercast.2 mph86%30.44 "Hg6 mi
12:00 AM28 °FOvercast.1 mph91%30.46 "Hg5 mi
11:00 PM
Dec 28
27 °FOvercast.1 mph90%30.47 "Hg5 mi
10:00 PM27 °FOvercast.2 mph88%30.48 "Hg6 mi
9:00 PM27 °FOvercast.2 mph86%30.48 "Hg6 mi
8:00 PM27 °FOvercast.2 mph86%30.49 "Hg6 mi
7:00 PM26 °FOvercast.1 mph88%30.47 "Hg7 mi
6:00 PM27 °FOvercast.2 mph83%30.45 "Hg9 mi
5:00 PM26 °FPassing clouds.1 mph84%30.42 "Hg9 mi
4:00 PM28 °FOvercast.1 mph79%30.38 "Hg10 mi
3:00 PM28 °FOvercast.2 mph75%30.37 "Hg11 mi
2:00 PM29 °FOvercast.5 mph74%30.36 "Hg16 mi
Weather by CustomWeather, © 2014

See weather overviewHow to use our weather pages